Location: Unspecified
(52.4292°N, 19.3359°E)
Time: 17:35:15
(UTC+02:00)

Transit 2A Rocket - Pass Details

Date: 23 May 2024
Orbit: 583 x 910 km, 66.7° (Epoch: 22 June)

Event Time Altitude Azimuth Distance (km) Brightness Sun altitude
Rises 13:23:42 0° 317° (NW) 3,410 8.2 57.2°
Reaches altitude 10° 13:26:14 10° 311° (NW) 2,510 7.7 57.0°
Maximum altitude 13:31:40 41° 243° (WSW) 1,274 7.4 56.7°
Drops below altitude 10° 13:37:18 10° 175° (S) 2,589 8.4 56.4°
Sets 13:39:57 0° 169° (S) 3,528 8.8 56.2°
